Weather History for Warsaw, IN

Change the Weather History Date:

Thursday, February 27, 2014

  Actual Average Record
Temperature  
Mean Temperature 10 °F -  
Max Temperature 19 °F 40 °F 61 °F (1976)
Min Temperature 0 °F 20 °F -21 °F (1963)
Degree Days  
Heating Degree Days 55    
Moisture  
Dew Point 4 °F    
Average Humidity 71    
Maximum Humidity 92    
Minimum Humidity 57    
Precipitation  
Precipitation 0.00 in - - ()
Sea Level Pressure  
Sea Level Pressure 29.93 in    
Wind  
Wind Speed 16 mph (WNW)    
Max Wind Speed 29 mph    
Max Gust Speed 36 mph    
Visibility 8 miles    
Events Snow    
Averages and records for this station are not official NWS values.
T = Trace of Precipitation, MM = Missing Value Source: NWS Daily Summary

Daily Weather History Graph

Daily Weather History Graph

Search for Another Location

Airport:

Trip Planner

Search our weather history database for the weather conditions in past years. The results will help you decide how hot, cold, wet, or windy it might be!

Date:

Astronomy

Feb. 27, 2014 Rise Set
Actual Time 7:20 AM EST 6:31 PM EST
Civil Twilight 6:53 AM EST 6:59 PM EST
Nautical Twilight 6:21 AM EST 7:31 PM EST
Astronomical Twilight 5:49 AM EST 8:03 PM EST
Moon 5:53 AM EST (2/27) 4:56 PM EST (2/27)
Length of Visible Light 12h 06m
Length of Day
11h 11m
Waning Crescent, 4% of the Moon is Illuminated
Feb 27
Waning Crescent
Mar 1
New
Mar 8
First Quarter
Mar 16
Full
Mar 23
Last Quarter

Hourly Weather History & Observations

Time (EST) Temp. Windchill Dew Point Humidity Pressure Visibility Wind Dir Wind Speed Gust Speed Precip Events Conditions
12:15 AM 14.0 °F -0.8 °F 5.0 °F 67% 29.68 in 10.0 mi WSW 13.8 mph 23.0 mph N/A   Scattered Clouds
12:35 AM 15.8 °F -1.1 °F 5.0 °F 62% 29.67 in 10.0 mi WSW 19.6 mph 24.2 mph N/A   Overcast
12:55 AM 17.6 °F 1.3 °F 5.0 °F 58% 29.66 in 10.0 mi WSW 19.6 mph 28.8 mph N/A   Overcast
1:15 AM 17.6 °F 1.3 °F 5.0 °F 58% 29.65 in 10.0 mi WSW 19.6 mph 29.9 mph N/A   Overcast
1:35 AM 17.6 °F 0.1 °F 6.8 °F 63% 29.64 in 10.0 mi WSW 23.0 mph 31.1 mph N/A   Overcast
1:55 AM 19.4 °F 2.5 °F 8.6 °F 63% 29.63 in 10.0 mi WSW 23.0 mph 31.1 mph N/A   Overcast
2:15 AM 19.4 °F 3.6 °F 8.6 °F 63% 29.63 in 10.0 mi WSW 19.6 mph 28.8 mph N/A   Overcast
2:35 AM 19.4 °F 4.1 °F 10.4 °F 68% 29.62 in 10.0 mi West 18.4 mph 27.6 mph N/A   Overcast
2:55 AM 19.4 °F 3.2 °F 10.4 °F 68% 29.61 in 10.0 mi West 20.7 mph 25.3 mph N/A   Overcast
3:15 AM 19.4 °F 0.8 °F 8.6 °F 63% 29.61 in 10.0 mi West 28.8 mph 35.7 mph N/A   Overcast
3:35 AM 19.4 °F 2.5 °F 8.6 °F 63% 29.62 in 10.0 mi West 23.0 mph 34.5 mph N/A   Overcast
3:55 AM 17.6 °F 0.5 °F 8.6 °F 68% 29.62 in 10.0 mi West 21.9 mph 34.5 mph N/A   Mostly Cloudy
4:15 AM 17.6 °F 1.3 °F 8.6 °F 68% 29.62 in 10.0 mi West 19.6 mph 27.6 mph N/A Snow Light Snow
4:35 AM 17.6 °F 2.7 °F 10.4 °F 73% 29.64 in 10.0 mi West 16.1 mph 23.0 mph N/A   Overcast
4:55 AM 17.6 °F 1.3 °F 10.4 °F 73% 29.65 in 10.0 mi WNW 19.6 mph 26.5 mph N/A   Overcast
5:20 AM 15.8 °F -1.9 °F 10.4 °F 79% 29.67 in 7.0 mi WNW 21.9 mph 25.3 mph N/A   Mostly Cloudy
5:35 AM 15.8 °F -2.3 °F 10.4 °F 79% 29.68 in 3.0 mi WNW 23.0 mph 31.1 mph N/A Snow Light Snow
5:55 AM 15.8 °F -2.3 °F 10.4 °F 79% 29.70 in 5.0 mi WNW 23.0 mph 27.6 mph N/A Snow Light Snow
6:15 AM 14.0 °F -3.9 °F 8.6 °F 79% 29.71 in 2.5 mi NW 20.7 mph 31.1 mph N/A Snow Light Snow
6:35 AM 14.0 °F -3.9 °F 5.0 °F 67% 29.73 in 10.0 mi WNW 20.7 mph 28.8 mph N/A   Mostly Cloudy
6:55 AM 12.2 °F -7.5 °F 5.0 °F 73% 29.75 in 2.0 mi NW 24.2 mph 34.5 mph N/A Snow Light Snow
7:15 AM 10.4 °F -6.0 °F 5.0 °F 79% 29.77 in 5.0 mi WNW 15.0 mph 25.3 mph N/A Snow Light Snow
7:35 AM 10.4 °F -8.6 °F 1.4 °F 67% 29.79 in 10.0 mi WNW 20.7 mph 27.6 mph N/A   Scattered Clouds
7:55 AM 10.4 °F -7.7 °F -0.4 °F 62% 29.81 in 10.0 mi WNW 18.4 mph 26.5 mph N/A   Clear
8:15 AM 10.4 °F -8.2 °F -0.4 °F 62% 29.82 in 10.0 mi WNW 19.6 mph 29.9 mph N/A   Clear
8:35 AM 10.4 °F -9.5 °F 1.4 °F 67% 29.85 in 5.0 mi WNW 23.0 mph 29.9 mph N/A   Haze
8:55 AM 10.4 °F -6.6 °F 3.2 °F 73% 29.87 in 2.0 mi NW 16.1 mph 23.0 mph N/A Snow Light Snow
9:15 AM 10.4 °F -9.1 °F 3.2 °F 73% 29.89 in 7.0 mi NW 21.9 mph - N/A   Scattered Clouds
9:35 AM 10.4 °F -8.2 °F -0.4 °F 62% 29.90 in 10.0 mi WNW 19.6 mph 29.9 mph N/A   Mostly Cloudy
10:00 AM 10.4 °F -7.2 °F 3.2 °F 73% 29.92 in 5.0 mi WNW 17.3 mph 27.6 mph N/A   Haze
10:15 AM 12.2 °F -6.7 °F 3.2 °F 67% 29.93 in 10.0 mi WNW 21.9 mph 27.6 mph N/A   Mostly Cloudy
10:35 AM 12.2 °F -5.8 °F 3.2 °F 67% 29.94 in 10.0 mi WNW 19.6 mph 27.6 mph N/A   Mostly Cloudy
10:55 AM 12.2 °F -6.3 °F 1.4 °F 62% 29.96 in 7.0 mi WNW 20.7 mph 25.3 mph N/A   Overcast
11:15 AM 12.2 °F -6.3 °F -0.4 °F 57% 29.97 in 7.0 mi NNW 20.7 mph 31.1 mph N/A   Mostly Cloudy
11:35 AM 12.2 °F -2.5 °F 1.4 °F 62% 29.99 in 10.0 mi NNW 12.7 mph 21.9 mph N/A   Mostly Cloudy
11:55 AM 12.2 °F -5.3 °F 1.4 °F 62% 30.00 in 2.5 mi NW 18.4 mph 25.3 mph N/A Snow Light Snow
12:15 PM 12.2 °F -5.8 °F -0.4 °F 57% 30.01 in 10.0 mi NW 19.6 mph 28.8 mph N/A   Mostly Cloudy
12:35 PM 14.0 °F -2.0 °F 3.2 °F 62% 30.02 in 10.0 mi WNW 16.1 mph 25.3 mph N/A   Mostly Cloudy
12:55 PM 12.2 °F -4.3 °F 3.2 °F 67% 30.03 in 1.2 mi WNW 16.1 mph 25.3 mph N/A Snow Light Snow
1:15 PM 12.2 °F -4.8 °F 3.2 °F 67% 30.04 in 2.0 mi NW 17.3 mph - N/A Snow Light Snow
1:35 PM 12.2 °F -6.3 °F 3.2 °F 67% 30.04 in 7.0 mi NW 20.7 mph 25.3 mph N/A   Mostly Cloudy
1:55 PM 14.0 °F -3.4 °F 3.2 °F 62% 30.04 in 10.0 mi NW 19.6 mph 23.0 mph N/A   Scattered Clouds
2:15 PM 14.0 °F -2.0 °F 1.4 °F 57% 30.05 in 10.0 mi WNW 16.1 mph 21.9 mph N/A   Mostly Cloudy
2:35 PM 14.0 °F -2.5 °F 3.2 °F 62% 30.05 in 7.0 mi NW 17.3 mph 23.0 mph N/A   Mostly Cloudy
2:55 PM 14.0 °F -1.4 °F 1.4 °F 57% 30.06 in 10.0 mi West 15.0 mph 18.4 mph N/A   Mostly Cloudy
3:15 PM 12.2 °F -2.5 °F 3.2 °F 67% 30.07 in 5.0 mi NW 12.7 mph - N/A Snow Light Snow
3:35 PM 12.2 °F -4.3 °F 3.2 °F 67% 30.07 in 4.0 mi NW 16.1 mph 20.7 mph N/A Snow Light Snow
3:55 PM 12.2 °F -2.5 °F -0.4 °F 57% 30.08 in 10.0 mi NW 12.7 mph 18.4 mph N/A   Mostly Cloudy
4:15 PM 10.4 °F -4.8 °F -0.4 °F 62% 30.08 in 10.0 mi NW 12.7 mph - N/A   Scattered Clouds
4:35 PM 12.2 °F -1.8 °F 1.4 °F 62% 30.09 in 10.0 mi WNW 11.5 mph - N/A   Scattered Clouds
4:55 PM 10.4 °F -3.3 °F 3.2 °F 73% 30.10 in 2.5 mi NW 10.4 mph - N/A Snow Light Snow
5:15 PM 12.2 °F -1.0 °F 1.4 °F 62% 30.10 in 10.0 mi NW 10.4 mph - N/A   Overcast
5:35 PM 10.4 °F -1.5 °F 5.0 °F 79% 30.10 in 2.0 mi North 8.1 mph - N/A Snow Light Snow
5:55 PM 10.4 °F 0.8 °F 5.0 °F 79% 30.11 in 1.5 mi North 5.8 mph - N/A Snow Light Snow
6:15 PM 10.4 °F 2.2 °F 3.2 °F 73% 30.12 in 5.0 mi NNW 4.6 mph - N/A Snow Light Snow
6:35 PM 8.6 °F -4.7 °F 3.2 °F 79% 30.13 in 1.5 mi North 9.2 mph - N/A Snow Light Snow
6:55 PM 8.6 °F 0.1 °F 3.2 °F 79% 30.14 in 10.0 mi NNW 4.6 mph - N/A   Overcast
7:15 PM 8.6 °F 0.1 °F 1.4 °F 73% 30.14 in 10.0 mi North 4.6 mph - N/A   Scattered Clouds
7:35 PM 6.8 °F -0.1 °F 1.4 °F 79% 30.15 in 10.0 mi North 3.5 mph - N/A   Clear
7:55 PM 6.8 °F - 3.2 °F 85% 30.16 in 10.0 mi Calm Calm - N/A   Clear
8:15 PM 6.8 °F - 3.2 °F 85% 30.16 in 10.0 mi Calm Calm - N/A   Clear
8:35 PM 6.8 °F - 3.2 °F 85% 30.16 in 10.0 mi Calm Calm - N/A   Clear
8:55 PM 5.0 °F -2.1 °F 1.4 °F 85% 30.17 in 10.0 mi NNW 3.5 mph - N/A   Clear
9:15 PM 5.0 °F - 1.4 °F 85% 30.17 in 10.0 mi Calm Calm - N/A   Clear
9:35 PM 5.0 °F - 1.4 °F 85% 30.17 in 10.0 mi Calm Calm - N/A   Clear
9:55 PM 3.2 °F - -0.4 °F 85% 30.17 in 10.0 mi Calm Calm - N/A   Clear
10:15 PM 3.2 °F - -0.4 °F 85% 30.18 in 10.0 mi Calm Calm - N/A   Clear
10:35 PM 1.4 °F - -0.4 °F 92% 30.18 in 10.0 mi Calm Calm - N/A   Clear
10:55 PM 1.4 °F - -2.2 °F 85% 30.18 in 10.0 mi Calm Calm - N/A   Clear
11:15 PM 1.4 °F - -2.2 °F 85% 30.18 in 10.0 mi Calm Calm - N/A   Clear
11:35 PM 1.4 °F - -2.2 °F 85% 30.19 in 10.0 mi Calm Calm - N/A   Clear
11:55 PM -0.4 °F - -4.0 °F 85% 30.19 in 10.0 mi Calm Calm - N/A   Clear